Location: Shenandoah County Park
(38.9356°N, 78.4524°W)
Time: 15:31:42
(UTC-05:00)

Vanguard 2 Rocket - Pass Details

Date: 08 December 2023
Orbit: 555 x 3309 km, 32.9° (Epoch: 03 March)

Event Time Altitude Azimuth Distance (km) Brightness Sun altitude
Rises 15:52:26 0° 262° (W) 6,331 12.3 8.7°
Reaches altitude 10° 15:56:10 10° 260° (W) 5,584 12.2 8.1°
Maximum altitude 16:14:39 73° 181° (S) 3,405 10.1 5.2°
Drops below altitude 10° 16:33:51 10° 101° (ESE) 5,766 10.6 2.1°
Sets 16:37:47 0° 100° (E) 6,536 10.8 1.5°
